Home   Weather   Nannestad   Past weeks

Flag for Norway Past Weather in Nannestad, Norway — Yesterday and Last 2 Weeks

Now
32 °F

Clear.


Feels Like: 32 °F
Forecast: 29 / 35 °F
Wind: 2 mph from North

Location: Oslo Gardermoen Airport

Current Time: Feb 21, 2017 at 12:15:02 am

Latest Report: Feb 20, 2017 at 11:20 pm


Visibility: 10 mi

Pressure: 29.09 "Hg

Humidity: 93%

Dew Point: 30 °F

Location of NannestadLocation

Past Weather in Nannestad — Graph

°F

Nannestad Temperature Yesterday

Maximum temperature yesterday: 37 °F (at 12:20 am)
Minimum temperature yesterday: 32 °F (at 9:20 pm)
Average temperature yesterday: 35 °F

High & Low Weather Summary for the Past Weeks

 TemperatureHumidityPressure
High43 °F (Feb 19, 1:50 pm)100% (Feb 15, 5:20 am)30.89 "Hg (Feb 15, 5:20 am)
Low10 °F (Feb 8, 6:20 am)61% (Feb 19, 10:50 pm)29.06 "Hg (Feb 20, 4:50 pm)
Average23 °F85%30.34 "Hg
* Reported Feb 5 11:20 pm — Feb 20 11:20 pm, Nannestad, Weather by CustomWeather, © 2017

Note: Actual official high and low records may vary slightly from our data, if they occured in-between our weather recording intervals... More about our weather records

Advertising

Nannestad Weather History for the Previous 24 Hours

Scroll right to see more
 ConditionsComfort  
Time TempWeatherWind HumidityBarometerVisibility
11:20 pm
Mon, Feb 20
32 °FClear.2 mph93%29.09 "Hg10 mi
10:50 pm32 °FClear.3 mph93%29.09 "Hg10 mi
10:20 pm32 °FClear.6 mph93%29.09 "Hg10 mi
9:50 pm32 °FClear.5 mph93%29.09 "Hg10 mi
9:20 pm32 °FClear.6 mph93%29.09 "Hg10 mi
8:50 pm34 °FPassing clouds.3 mph93%29.06 "HgN/A
8:20 pm34 °FClear.3 mph87%29.06 "Hg10 mi
7:50 pm34 °FClear.3 mph93%29.06 "Hg10 mi
7:20 pm34 °FPassing clouds.3 mph93%29.06 "HgN/A
6:50 pm36 °FClear.No wind87%29.06 "Hg10 mi
6:20 pm36 °FClear.No wind87%29.06 "Hg10 mi
5:50 pm37 °FClear.2 mph87%29.06 "Hg10 mi
5:20 pm37 °FClear.No wind87%29.06 "Hg10 mi
4:50 pm37 °FSunny.No wind87%29.06 "Hg10 mi
4:20 pm37 °FSunny.6 mph87%29.09 "Hg10 mi
3:50 pm37 °FSunny.2 mph87%29.09 "Hg10 mi
3:20 pm37 °FPartly sunny.3 mph87%29.09 "HgN/A
2:50 pm37 °FPartly sunny.2 mph87%29.12 "HgN/A
2:20 pm37 °FPartly sunny.2 mph87%29.12 "HgN/A
1:50 pm37 °FPartly sunny.3 mph87%29.15 "HgN/A
1:20 pm36 °FPartly sunny.2 mph93%29.15 "HgN/A
12:50 pm36 °FPartly sunny.3 mph93%29.15 "HgN/A
12:20 pm36 °FPartly sunny.5 mph93%29.15 "HgN/A
11:50 am36 °FPartly sunny.3 mph93%29.18 "HgN/A
11:20 am36 °FPartly sunny.5 mph93%29.18 "HgN/A
10:50 am36 °FPartly sunny.7 mph93%29.18 "HgN/A
10:20 am36 °FBroken clouds.6 mph93%29.18 "HgN/A
9:50 am36 °FPartly sunny.5 mph87%29.18 "HgN/A
9:20 am36 °FPartly sunny.8 mph87%29.18 "HgN/A
8:50 am36 °FPartly sunny.8 mph87%29.18 "HgN/A
8:20 am34 °FBroken clouds.5 mph93%29.18 "HgN/A
7:50 am34 °FBroken clouds.6 mph93%29.21 "HgN/A
7:20 am34 °FPassing clouds.9 mph93%29.18 "HgN/A
6:50 am34 °FClear.8 mph87%29.21 "Hg10 mi
6:20 am34 °FClear.12 mph87%29.21 "Hg10 mi
5:50 am34 °FClear.9 mph87%29.24 "Hg10 mi
5:20 am34 °FClear.9 mph87%29.24 "Hg10 mi
4:50 am36 °FClear.8 mph81%29.27 "Hg10 mi
4:20 am36 °FClear.8 mph81%29.27 "Hg10 mi
3:50 am37 °FClear.8 mph75%29.27 "Hg10 mi
3:20 am36 °FClear.7 mph81%29.27 "Hg10 mi
2:50 am37 °FClear.9 mph75%29.30 "Hg10 mi
2:20 am37 °FClear.10 mph70%29.33 "Hg10 mi
1:50 am37 °FClear.8 mph70%29.36 "Hg10 mi
12:50 am37 °FClear.10 mph75%29.39 "Hg10 mi
12:20 am37 °FOvercast.8 mph75%29.42 "HgN/A
Weather by CustomWeather, © 2017

See weather overviewHow to use our weather pages